Retour au catalogue

CZ-4 DEB

ActifSSO
NORAD 26222·DEBRIS·🇨🇳 China

Lancé Oct 14, 1999 depuis Taiyuan Satellite Launch Center

Loading…

Prochains Passages (prochaines 24 heures)

TLE

FraisSource: Space-Track

Époque: Sep 14, 2026, 14:23 UTC

1 26222U 99057DL  26257.59949011  .00000656  00000-0  15853-3 0  9996
2 26222  98.4699 319.9975 0068383 169.2489 191.0188 14.55116511396771

Suivez CZ-4 DEB en temps réel avec AllMySat

Download on the App Store